Pond Inlet,

1:36 PM EST on December 07, 2016 (GMT -0500)
Pond Inlet

Weather History for CYIO - October, 2011

Change the Weather History Date:

Sunday, October 30, 2011

  Actual Average Record
Temperature  
Mean Temperature 12 °F -  
Max Temperature 15 °F 9 °F 28 °F (1998)
Min Temperature 6 °F 0 °F -13 °F (1999)
Degree Days  
Heating Degree Days 54    
Moisture  
Dew Point 9 °F    
Average Humidity 85    
Maximum Humidity 93    
Minimum Humidity 72    
Precipitation  
Precipitation 0.00 in - - ()
Sea Level Pressure  
Sea Level Pressure 30.04 in    
Wind  
Wind Speed 3 mph ()    
Max Wind Speed 7 mph    
Max Gust Speed -    
Visibility 9.0 miles    
Events      
Averages and records for this station are not official NWS values.
T = Trace of Precipitation, MM = Missing Value Source: Averaged Metar Reports

Daily Weather History Graph

Daily Weather History Graph

Search for Another Location

Airport or City:

Trip Planner

Search our weather history database for the weather conditions in past years. The results will help you decide how hot, cold, wet, or windy it might be!

Date:

Astronomy

Oct. 30, 2011 Rise Set
Actual Time 10:05 AM EDT 3:44 PM EDT
Civil Twilight 8:35 AM EDT 5:13 PM EDT
Nautical Twilight 7:10 AM EDT 6:38 PM EDT
Astronomical Twilight 5:49 AM EDT 7:59 PM EDT
Moon No Moon Rise No Moon Set
Length of Visible Light 8h 37m
Length of Day
5h 38m
Waxing Crescent, 20% of the Moon is Illuminated
Oct 30
Waxing Crescent
Nov 2
First Quarter
Nov 10
Full
Nov 18
Last Quarter
Nov 25
New

Hourly Weather History & Observations

Time (EDT) Temp. Windchill Dew Point Humidity Pressure Visibility Wind Dir Wind Speed Gust Speed Precip Events Conditions
12:00 AM 14.0 °F 6.5 °F 10.4 °F 86% 30.00 in 9.0 mi South 4.6 mph - N/A   Overcast
1:00 AM 15.8 °F - 12.2 °F 86% 29.99 in 9.0 mi South 2.3 mph - N/A   Overcast
2:00 AM 13 °F - 10 °F 80% 30.01 in 9 mi SSE 2.3 mph - -   Overcast
2:00 AM 12.2 °F - 10.4 °F 92% 30.01 in 9.0 mi Calm Calm - N/A   Overcast
4:00 AM 14.0 °F - 12.2 °F 93% 30.01 in 9.0 mi South 2.3 mph - N/A   Overcast
5:00 AM 15 °F - 11 °F 79% 30.03 in 9 mi SSW 2.3 mph - -   Overcast
5:00 AM 15.8 °F - 12.2 °F 86% 30.03 in 9.0 mi South 2.3 mph - N/A   Overcast
6:00 AM 14.0 °F 6.5 °F 10.4 °F 86% 30.03 in 9.0 mi SE 4.6 mph - N/A   Overcast
7:00 AM 14.0 °F 5.1 °F 10.4 °F 86% 30.02 in 9.0 mi South 5.8 mph - N/A   Overcast
8:00 AM 14 °F - 11 °F 81% 30.03 in 9 mi SSE 4.6 mph - -   Overcast
8:00 AM 14.0 °F 6.5 °F 10.4 °F 86% 30.03 in 9.0 mi South 4.6 mph - N/A   Overcast
9:00 AM 14.0 °F 6.5 °F 10.4 °F 86% 30.04 in 9.0 mi SSE 4.6 mph - N/A   Overcast
10:00 AM 14.0 °F 5.1 °F 10.4 °F 86% 30.05 in 9.0 mi South 5.8 mph - N/A   Overcast
11:00 AM 14 °F - 11 °F 82% 30.05 in 9 mi SSE 3.5 mph - -   Overcast
12:00 PM 14.0 °F 6.5 °F 10.4 °F 86% 30.05 in 9.0 mi SSE 4.6 mph - N/A   Overcast
1:00 PM 12.2 °F 4.3 °F 10.4 °F 92% 30.04 in 9.0 mi SSE 4.6 mph - N/A   Overcast
2:00 PM 13 °F - 10 °F 82% 30.05 in 9 mi SSE 3.5 mph - -   Overcast
2:00 PM 12.2 °F 4.3 °F 10.4 °F 92% 30.05 in 9.0 mi SSE 4.6 mph - N/A   Overcast
4:00 PM 12.2 °F 6.1 °F 8.6 °F 85% 30.06 in 9.0 mi South 3.5 mph - N/A   Overcast
5:00 PM 10 °F - 8 °F 85% 30.05 in 9 mi SE 4.6 mph - -   Overcast
5:00 PM 10.4 °F 0.8 °F 6.8 °F 85% 30.05 in 9.0 mi SE 5.8 mph - N/A   Overcast
6:00 PM 8.6 °F 0.1 °F 5.0 °F 85% 30.06 in 9.0 mi SSE 4.6 mph - N/A   Overcast
7:00 PM 8.6 °F -2.6 °F 5.0 °F 85% 30.08 in 9.0 mi SSE 6.9 mph - N/A   Overcast
8:00 PM 9 °F - 7 °F 85% 30.08 in 9 mi ESE 4.6 mph - -   Overcast
8:00 PM 8.6 °F 0.1 °F 6.8 °F 92% 30.08 in 9.0 mi ESE 4.6 mph - N/A   Overcast
9:00 PM 12.2 °F 4.3 °F 8.6 °F 85% 30.07 in 9.0 mi East 4.6 mph - N/A   Clear
10:00 PM 10.4 °F - 3.2 °F 73% 30.07 in 9.0 mi East 2.3 mph - N/A   Clear
11:00 PM 8 °F - 3 °F 72% 30.05 in 9 mi Calm Calm - -  
11:00 PM 6.8 °F - 3.2 °F 85% 30.05 in 9.0 mi Calm Calm - N/A   Partly Cloudy